Iron Mountain, MI

7:45 AM CDT on June 25, 2017 (GMT -0500)
Ford

Weather History for KIMT - January, 2013

Change the Weather History Date:

Wednesday, January 2, 2013

  Actual Average Record
Temperature  
Mean Temperature 18 °F -  
Max Temperature 21 °F 23 °F 44 °F (1998)
Min Temperature 15 °F 2 °F -23 °F (1974)
Degree Days  
Heating Degree Days 47    
Moisture  
Dew Point 13 °F    
Average Humidity 79    
Maximum Humidity 88    
Minimum Humidity 71    
Precipitation  
Precipitation 0.00 in - - ()
Sea Level Pressure  
Sea Level Pressure 30.03 in    
Wind  
Wind Speed 6 mph (South)    
Max Wind Speed 9 mph    
Max Gust Speed -    
Visibility 9 miles    
Events Snow    
Averages and records for this station are not official NWS values.
T = Trace of Precipitation, MM = Missing Value Source: NWS Daily Summary

Daily Weather History Graph

Daily Weather History Graph

Search for Another Location

Airport or City:

Trip Planner

Search our weather history database for the weather conditions in past years. The results will help you decide how hot, cold, wet, or windy it might be!

Date:

Astronomy

Jan. 02, 2013 Rise Set
Actual Time 7:33 AM CST 4:19 PM CST
Civil Twilight 6:59 AM CST 4:54 PM CST
Nautical Twilight 6:21 AM CST 5:31 PM CST
Astronomical Twilight 5:45 AM CST 6:07 PM CST
Moon 10:11 PM CST (1/2) 9:58 AM CST (1/2)
Length of Visible Light 9h 54m
Length of Day
8h 46m
Waning Gibbous, 75% of the Moon is Illuminated
Jan 2
Waning Gibbous
Jan 4
Last Quarter
Jan 11
New
Jan 18
First Quarter
Jan 26
Full

Hourly Weather History & Observations

Time (CST) Temp. Windchill Dew Point Humidity Pressure Visibility Wind Dir Wind Speed Gust Speed Precip Events Conditions
12:54 AM 16.0 °F 8.8 °F 10.0 °F 77% 30.02 in 10.0 mi West 4.6 mph - N/A   Overcast
1:54 AM 16.0 °F 7.4 °F 10.0 °F 77% 30.03 in 10.0 mi West 5.8 mph - N/A   Overcast
2:54 AM 17.1 °F 8.7 °F 10.9 °F 77% 30.04 in 10.0 mi WSW 5.8 mph - N/A   Overcast
3:37 AM 17.6 °F 8.2 °F 10.4 °F 73% 29.97 in 10.0 mi West 6.9 mph - N/A   Overcast
3:54 AM 17.1 °F 7.6 °F 12.0 °F 81% 30.05 in 10.0 mi West 6.9 mph - N/A   Overcast
4:54 AM 17.1 °F 10.0 °F 12.0 °F 81% 30.06 in 8.0 mi WNW 4.6 mph - 0.00 in Snow Light Snow
5:05 AM 17.6 °F 9.3 °F 12.2 °F 79% 29.99 in 9.0 mi NW 5.8 mph - 0.00 in   Overcast
6:11 AM 17.6 °F 12.3 °F 12.2 °F 79% 29.99 in 9.0 mi SSW 3.5 mph - 0.00 in Snow Light Snow
6:52 AM 15.8 °F 7.2 °F 12.2 °F 86% 29.99 in 10.0 mi SSW 5.8 mph - 0.00 in   Overcast
6:54 AM 16.0 °F 7.4 °F 12.9 °F 88% 30.07 in 10.0 mi SSW 5.8 mph - 0.00 in   Overcast
7:03 AM 15.8 °F 10.2 °F 12.2 °F 86% 29.99 in 10.0 mi SSW 3.5 mph - N/A   Overcast
7:54 AM 16.0 °F 8.8 °F 12.9 °F 88% 30.08 in 8.0 mi South 4.6 mph - N/A   Overcast
8:54 AM 17.1 °F 10.0 °F 14.0 °F 88% 30.09 in 7.0 mi South 4.6 mph - N/A   Overcast
9:22 AM 17.6 °F 9.3 °F 14.0 °F 86% 30.02 in 5.0 mi South 5.8 mph - 0.00 in Snow Light Snow
9:36 AM 17.6 °F 8.2 °F 14.0 °F 86% 30.02 in 4.0 mi South 6.9 mph - 0.00 in Snow Light Snow
9:54 AM 17.1 °F 7.6 °F 12.9 °F 84% 30.10 in 4.0 mi South 6.9 mph - 0.00 in Snow Light Snow
10:54 AM 18.0 °F 7.7 °F 12.9 °F 81% 30.09 in 6.0 mi South 8.1 mph - 0.00 in   Haze
11:54 AM 19.0 °F 11.1 °F 12.9 °F 77% 30.06 in 10.0 mi South 5.8 mph - N/A   Overcast
12:54 PM 19.9 °F 10.1 °F 12.9 °F 74% 30.03 in 10.0 mi South 8.1 mph - N/A   Overcast
1:54 PM 21.0 °F 10.6 °F 14.0 °F 74% 30.02 in 10.0 mi SSE 9.2 mph - N/A   Overcast
2:54 PM 21.0 °F 11.4 °F 12.9 °F 71% 30.03 in 10.0 mi SSE 8.1 mph - N/A   Overcast
3:54 PM 21.0 °F 13.4 °F 12.9 °F 71% 30.03 in 10.0 mi SSE 5.8 mph - N/A   Overcast
4:38 PM 19.4 °F 11.5 °F 12.2 °F 74% 29.97 in 10.0 mi SSE 5.8 mph - N/A   Overcast
4:52 PM 19.4 °F 10.4 °F 12.2 °F 74% 29.97 in 10.0 mi SSE 6.9 mph - N/A   Overcast
4:54 PM 19.9 °F 12.1 °F 12.9 °F 74% 30.04 in 10.0 mi SSE 5.8 mph - N/A   Overcast
5:03 PM 19.4 °F 10.4 °F 12.2 °F 74% 29.97 in 10.0 mi SSE 6.9 mph - N/A   Overcast
5:54 PM 19.9 °F 11.1 °F 12.9 °F 74% 30.04 in 10.0 mi SSE 6.9 mph - N/A   Overcast
6:54 PM 19.0 °F 10.0 °F 14.0 °F 81% 30.04 in 9.0 mi SSE 6.9 mph - N/A   Overcast
7:54 PM 19.0 °F 9.0 °F 12.9 °F 77% 30.04 in 10.0 mi SSE 8.1 mph - N/A   Overcast
8:54 PM 19.0 °F 9.0 °F 12.9 °F 77% 30.03 in 7.0 mi South 8.1 mph - 0.00 in Snow Light Snow
9:54 PM 18.0 °F 12.7 °F 12.9 °F 81% 30.02 in 10.0 mi South 3.5 mph - 0.00 in   Overcast
10:54 PM 17.1 °F - 12.9 °F 84% 30.03 in 10.0 mi Calm Calm - N/A   Overcast
11:54 PM 17.1 °F - 12.9 °F 84% 30.02 in 10.0 mi Calm Calm - N/A   Overcast